User: anonymous   Login
Location: Goodfare
(55.2420°N, 119.7689°W)
Time: 14:25:28
(UTC+00:00)
Language:

ISS - Orbit

View from above orbital plane
View from above orbital plane
View from above satellite
View from above satellite

Ground track
Ground track

The orbit data is extracted from the following two-line orbital elements,

1 25544U 98067A   22027.09835009  .00008059  00000-0  15076-3 0  9991
2 25544  51.6452 315.2942 0006921  65.2544 318.5018 15.49659889323306
Epoch (UTC): 27 January 2022 02:21:37
Eccentricity: 0.0006921
inclination: 51.6452°
perigee height: 413 km
apogee height: 422 km
right ascension of ascending node: 315.2942°
argument of perigee: 65.2544°
revolutions per day: 15.49659889
mean anomaly at epoch: 318.5018°
orbit number at epoch: 32330

The dashed part of the orbit path shows where the satellite is in the earth's shadow,  

DLR